www.pogodaiklimat.ru

Погода и климат >> Архив погоды >> Иран >> Шираз


ПОГОДА в Ширазе

  • Прогноз погоды в Ширазе
  • Монитор погоды в Ширазе

АРХИВ ПОГОДЫ в Ширазе

Время (UTC), дата Ветер
(напр.,м/с)
 
Видим.   Явления Облачность Т
(С)
Тd
(С)
f
(%)
Тe
(С)
Тes
(С)
Комфортность P
(гПа)
Po
(гПа)
Тmin
(С)
Tmax
(С)
R
(мм)
R24
(мм)
S
(см)
12 15.05 штиль 0 12 км 6/3 1200 м
[Cu med, cong Ci sp]
+29.2 +0.8 16 +27 +35 жарко 1003.4 848.1
15 15.05 З 4 8000 м гроза, ливневой дождь 9/9 900 м
[Cb cap]
+24.0 +3.5 26 +23 +23 комфорт 1005.4 849.3 +30.6
18 15.05 З 2 8000 м гроза без осадков 9/6 900 м
[Cb cap Cs]
+22.2 +4.5 31 +22 +22 комфорт 1005.2 850.1 0.0
21 15.05 штиль 0 10 км 6/1 1200 м
[Sc diur, vesp Ac trans Cs]
+18.8 +6.1 43 +19 +19 1005.4 850.4
00 16.05 штиль 0 10 км 5/1 1200 м
[Sc diur, vesp Ci sp]
+17.4 +6.6 49 +17 +17 1004.7 849.9
03 16.05 штиль 0 12 км 4/1 1200 м
[Sc diur, vesp Ac trans]
+15.8 +6.8 55 +16 +17 1008.1 850.8 +14.4
06 16.05 ЮВ 2 15 км 4/1 1200 м
[Sc diur, vesp Ac trans]
+25.6 +4.1 25 +25 +35 комфорт 1006.9 851.9
09 16.05 Ю 2 15 км 5/4 1050 м
[Cb calv Ci sp]
+28.6 +2.1 18 +26 +39 жарко 1005.9 850.6 666
12 16.05 СЗ 4 15 км 9/8 900 м
[Cb calv Ci sp]
+28.6 +0.7 16 +26 +27 жарко 1003.7 848.7
15 16.05 ЮВ 5 15 км 9/6 900 м
[Cb calv Cs]
+26.0 +2.8 22 +25 +25 комфорт 1004.8 848.7 +30.8 666
18 16.05 ЮЗ 6 8000 м гроза без осадков {ливн. осадки} 10/9 900 м
[Cb cap Cs]
+19.2 +8.5 50 +20 +20 1008.8 853.1 0.4
21 16.05 штиль 0 10 км 10/4 1200 м
[Sc diur, vesp Cs]
+18.8 +6.6 45 +19 +19 1006.4 851.6
00 17.05 штиль 0 10 км 9/3 1200 м
[Sc diur, vesp Cs]
+14.2 +7.6 64 +14 +14 1006.8 850.8
03 17.05 штиль 0 15 км 3/0
[Ci sp]
+14.6 +8.3 66 +14 +17 1008.5 851.8 +11.4 666
06 17.05 штиль 0 15 км ясно +23.8 +5.9 31 +24 +44 комфорт 1008.5 852.3
09 17.05 Ю 2 15 км 3/3 1050 м
[Cb calv]
+27.8 +2.4 19 +26 +41 жарко 1006.4 851.2 666
12 17.05 З 4 10 км 9/9 900 м
[Cb cap]
+26.2 -1.8 16 +24 +25 комфорт 1006.5 849.7
15 17.05 СЗ 5 15 км 9/9 900 м
[Cb cap]
+23.0 +3.5 28 +23 +23 комфорт 1007.8 850.3 +30.0
18 17.05 С 2 15 км 8/5 900 м
[Cb calv Ci sp]
+21.2 +2.8 30 +21 +21 комфорт 1007.3 851.6
21 17.05 З 2 15 км 6/4 1050 м
[Sc diur, vesp Ci sp]
+18.0 +4.9 42 +19 +19 1006.5 851.2
00 18.05 З 3 15 км 4/0
[Ci fib]
+16.8 +4.2 43 +17 +17 1008.1 851.1
03 18.05 штиль 0 15 км 3/1 1050 м
[Sc diur, vesp Ac trans]
+15.0 +7.1 59 +15 +17 1009.3 851.6 +12.4
06 18.05 СЗ 2 15 км 4/3 1200 м
[Cu med, cong Ac trans]
+24.8 +3.8 26 +24 +34 комфорт 1008.0 852.1
09 18.05 СВ 2 15 км 4/4 1050 м
[Cu med, cong]
+27.4 +3.1 21 +26 +39 жарко 1006.7 850.8
12 18.05 СВ 2 8000 м гроза, ливневой дождь 9/8 900 м
[Cb cap Cs]
+22.0 +10.9 49 +24 +26 комфорт 1007.1 849.9 1
15 18.05 З 2 10 км 9/1 1200 м
[Cu med, cong Cs]
+24.6 +4.6 27 +24 +24 комфорт 1006.4 849.2 +30.0 666
18 18.05 штиль 0 10 км {гроза, ливн. осадки} 8/1 1200 м
[Sc diur, vesp Cs]
+19.8 +9.0 50 +21 +21 комфорт 1005.9 850.6 0.8
21 18.05 СЗ 2 10 км 5/1 1200 м
[Sc diur, vesp Ci sp]
+20.8 +5.6 37 +22 +22 комфорт 1005.3 850.8
00 19.05 штиль 0 10 км 5/1 1200 м
[Sc diur, vesp Ci sp]
+16.2 +8.0 58 +16 +16 1007.3 850.2
03 19.05 штиль 0 10 км 8/1 1200 м
[Sc diur, vesp Cs]
+15.6 +9.9 69 +15 +17 1007.5 850.9 +14.0 666
06 19.05 В 2 10 км 8/1 1200 м
[Cu med, cong Cs]
+24.0 +5.7 31 +24 +35 комфорт 1007.6 851.7
09 19.05 штиль 0 10 км 8/3 1050 м
[Cu med, cong Cs]
+27.4 +2.3 20 +26 +43 жарко 1004.9 850.3 666
12 19.05 СВ 8 1000 м гроза с градом 9/9 900 м
[Cb cap Cs]
+18.6 +11.1 62 +18 +19 1008.7 850.7 3
15 19.05 ЮЗ 2 8000 м мгла {гроза, дождь} 10/6 900 м
[Cb calv Ac As]
+20.4 +8.5 46 +22 +22 комфорт 1009.1 851.2 +29.2
18 19.05 Ю 5 8000 м мгла {гроза, дождь} 10/6 900 м
[Cb calv As op]
+16.2 +11.0 71 +15 +15 1010.5 853.1 4
21 19.05 штиль 0 8000 м мгла 9/3 1200 м
[Sc diur, vesp Cs]
+15.2 +11.0 76 +15 +15 1009.5 852.8
00 20.05 штиль 0 8000 м пыль 8/1 1200 м
[Sc diur, vesp Ac trans Cs]
+14.8 +11.3 80 +15 +15 1009.9 851.4
03 20.05 штиль 0 8000 м дымка {ливн. осадки, дождь} 10/6 900 м
[Cb calv Ac As]
+15.0 +13.0 88 +15 +15 1011.5 852.9 +14.4
06 20.05 штиль 0 7000 м мгла 9/6 900 м
[Cb calv Ac As]
+20.4 +11.7 57 +22 +26 комфорт 1011.7 853.6 0.4
09 20.05 нст 2 7000 м мгла 8/4 1050 м
[Cu med, cong Ac trans Ci sp]
+23.4 +10.1 43 +25 +34 комфорт 1010.3 852.9
12 20.05 Ю 3 6000 м мгла 8/5 1050 м
[Cu med, cong Ci sp]
+24.6 +8.7 36 +25 +29 комфорт 1007.9 851.0
15 20.05 ЮЗ 5 1500 м гроза с градом 9/8 900 м
[Cb calv Ac trans Cs]
+22.8 +8.4 40 +24 +24 комфорт 1008.2 850.9 +15.0
18 20.05 штиль 0 10 км 3/3 1200 м
[Sc diur, vesp]
+15.6 +11.8 78 +15 +15 1010.1 852.2 8
21 20.05 штиль 0 10 км ясно +13.2 +10.7 85 +13 +13 1010.6 852.3
00 21.05 штиль 0 10 км 4/0
[Ci fib]
+13.2 +10.0 81 +13 +13 1009.3 851.9
03 21.05 штиль 0 10 км 5/0
[Ci sp]
+15.6 +9.1 65 +15 +18 1010.4 852.9 +12.0
06 21.05 ЮВ 2 10 км 4/0
[Ci sp]
+21.6 +3.5 30 +22 +35 комфорт 1011.0 853.1
09 21.05 штиль 0 10 км в посл. час ливневой дождь 6/6 900 м
[Cb calv]
+25.6 +7.2 31 +26 +37 жарко 1009.2 853.1
12 21.05 З 5 10 км {гроза, ливн. осадки} 6/3 900 м
[Cb calv Ci fib]
+26.2 +5.0 26 +25 +29 комфорт 1007.6 850.6 0.1
15 21.05 З 4 10 км 6/1 1050 м
[Cu med, cong Ci sp]
+23.8 +5.4 30 +24 +24 комфорт 1008.2 851.1 +27.4
18 21.05 СЗ 2 10 км 4/1 1050 м
[Sc diur, vesp Ci sp]
+21.0 +8.2 44 +23 +23 комфорт 1008.7 852.4
21 21.05 З 2 10 км 3/0
[Ci sp]
+19.0 +9.5 54 +20 +20 1008.0 852.4
00 22.05 штиль 0 10 км ясно +17.8 +8.9 56 +18 +18 1007.4 851.7
03 22.05 штиль 0 10 км 1/0
[Ci sp]
+18.6 +5.8 43 +19 +21 1008.7 885.3 +15.4
06 22.05 З 4 10 км ясно +24.6 +0.8 21 +23 +33 комфорт 1008.9 852.6
09 22.05 З 6 10 км 1/1 1200 м
[Cu hum]
+27.8 -3.7 12 +25 +32 комфорт 1007.0 851.2 666

 

Местоположение метеостанции Шираз (Иран): широта 29.53 долгота 52.53 высота над уровнем моря 1481 м.

В архиве по умолчанию представлена погода в Ширазе за последнюю неделю. Архивные данные за месяц целиком и за предыдущие месяцы, начиная с января 2011 года, Вы можете получить, выбрав интересующий диапазон дат из раскрывающегося списка и нажав кнопку "Ввод!".


*Определитесь, кто Вы:
робот инопланетянин человек

Внимание! Время в таблицах - всемирное. Для получения местного времени необходимо прибавить поправку, которая равна 3.5 ч.

Смотрите также архив погоды в соседних городах и на ближайших метеорологических станциях:

Погода в Фесе (Иран) (128 км)
Погода в Ясудже (Иран) (156 км)
Погода в Бушире (Иран) (175 км)
Погода в Бушир аэропорту (Иран) (176 км)
Погода в Абаде (Иран) (184 км)
Погода в Гечсаране (Иран) (197 км)
Погода в Бендер-Дейере (Иран) (198 км)
Погода на Харке (Иран) (216 км)
Погода в Омидийе (Иран) (308 км)
Погода в Сирджане (Иран) (309 км)

Пояснения к столбцам:

Ветер - указаны скорость ветра в м/с - средняя за 10 мин, порывы в срок и между сроками (в фигурных скобках) и направление, откуда дует ветер: С - северный, СВ - северо-восточный, В - восточный, ЮВ - юго-восточный, Ю - южный, ЮЗ - юго-западный, З - западный, СЗ - северо-западный.
Видимость - горизонтальная дальность видимости в метрах или километрах. При видимости от 1 до 10 км при отсутствии осадков обычно наблюдается дымка, при ухудшении видимости до 1 км и менее - туман. В сухую погоду видимость может ухудшаться дымом, пылью или мглою.
Явления - указаны атмосферные явления, наблюдавшиеся в срок или в последний час перед сроком; фигурными скобками обозначены явления, наблюдавшиеся между сроками (за 1-3 часа до срока); квадратными скобками обозначены град или гололедные отложения с указанием их диаметра в мм.
Облачность - указаны через наклонную черту общая и нижняя облачность в баллах и высота нижней границы облаков в метрах; квадратными скобками обозначены формы облаков: Ci - перистые, Cs - перисто-слоистые, Cc - перисто-кучевые, Ac - высококучевые, As - высокослоистые, Sc - слоисто-кучевые, Ns - слоисто-дождевые, Cu - кучевые, Cb - кучево-дождевые. Подробнее классификацию облаков см. в Атласе облаков (PDF).
T - Температура воздуха - температура, измеренная на высоте 2 м над землей.
Td - Температура точки росы - температура, при понижении до которой содержащийся в воздухе водяной пар достигнет насыщения.
f - Относительная влажность воздуха - влажноcть воздуха, измеренная на высоте 2 м над землей.
Te - Эффективная температура - температура, которую ощущает одетый по сезону человек в тени. Характеристика душности погоды. При расчете учитывается влияние влажности воздуха и скорости ветра на теплоощущения человека.
Tes - Эффективная температура на солнце - температура, которую ощущает человек, с поправкой на солнечный нагрев. Характеристика знойности погоды. Зависит от высоты солнца над горизонтом, облачности и скорости ветра. Ночью, в пасмурную погоду, а также при ветре 12 м/с и более поправка равна нулю.
P - Атмосферное давление - приведенное к уровню моря атмосферное давление.
Po - Атмосферное давление - измеренное на уровне метеостанции атмосферное давление.
Tmin - Минимальная температура - минимум температуры воздуха на высоте 2 м над землей.
Tmax - Максимальная температура - максимум температуры воздуха на высоте 2 м над землей.
R - Количество осадков - Количество выпавших осадков за период времени, мм. При наведении курсора мыши на число - период времени, за который выпало указанное количество осадков.
R24 - Количество осадков - Количество выпавших осадков за 24 часа, мм.
S - Снежный покров - Высота снежного покрова, см. При наведении курсора мыши на число - состояние снежного покрова и степень покрытия местности в баллах.